Location: Copper Breaks State Park
(34.1132°N, 99.7492°W)
Time: 16:34:12
(UTC-05:00)

Amateur Radio Satellites - All Passes

Search period start: 21 October 2014 16:04
Search period end: 22 October 2014 16:04
Location: Copper Breaks State Park, 34.1132°N, 99.7492°W

Satellite Date Start Highest point End Downlink Frequencies (MHz)
Time Altitude Azimuth
ISS 21 Oct 16:12:20 16:13:35 12° 333° (NNW) 16:14:51 145.800 FM
Uribyol 2 21 Oct 16:16:49 16:20:28 19° 266° (W) 16:24:09 436.500 FM
Gurwin Techsat 1B 21 Oct 16:18:33 16:23:30 40° 261° (W) 16:28:28 435.225 FM
ITAMSAT 1 21 Oct 16:22:04 16:25:34 18° 266° (W) 16:29:05 435.822 SSB
Uosat F 21 Oct 16:30:59 16:35:06 26° 69° (ENE) 16:39:14 435.120 FM
TMSAT-1 21 Oct 16:32:13 16:37:09 40° 261° (W) 16:42:08 436.925 FM
KITSAT 1 21 Oct 16:42:58 16:43:33 10° 327° (NNW) 16:44:09 435.175 FM
UOSAT-12 21 Oct 16:48:56 16:53:19 42° 303° (WNW) 16:57:48 437.025 FM, 437.400 FM
Saudisat 1A 21 Oct 17:11:11 17:12:32 11° 46° (NE) 17:13:53 436.775 MHz
AO-7 21 Oct 17:23:11 17:31:26 74° 254° (WSW) 17:39:44 29.400 - 29.500 MHz
AO-40 21 Oct 18:01:02 00:17:04 50° 183° (S) 06:35:07 Beacon 2401.320
JAS-2 21 Oct 18:01:27 18:06:49 47° 70° (ENE) 18:12:52 435.800 - 435.900 CW/SSB, 435.910 FM
OPAL 21 Oct 18:03:21 18:07:15 23° 98° (E) 18:11:07 ?
Uosat F 21 Oct 18:09:24 18:13:43 29° 263° (W) 18:18:06 435.120 FM
Hamsat 21 Oct 18:28:44 18:32:51 51° 75° (ENE) 18:36:56 145.90 MHz
Saudisat 1A 21 Oct 18:48:11 18:52:36 76° 243° (WSW) 18:57:00 436.775 MHz
SO-67 21 Oct 19:05:15 19:06:33 12° 69° (ENE) 19:07:51 435.3500 MHz FM
AO-7 21 Oct 19:24:27 19:25:17 10° 270° (W) 19:26:07 29.400 - 29.500 MHz
STRAND 1 21 Oct 19:41:41 19:45:56 26° 96° (E) 19:50:09 ?
OPAL 21 Oct 19:41:44 19:46:07 32° 292° (WNW) 19:50:29 ?
JAS-2 21 Oct 19:48:10 19:52:15 20° 269° (W) 19:56:41 435.800 - 435.900 CW/SSB, 435.910 FM
HO-68 21 Oct 20:08:26 20:11:50 14° 57° (ENE) 20:15:15 435.675 MHz FM
SO-67 21 Oct 20:36:12 20:39:13 28° 263° (W) 20:42:15 435.3500 MHz FM
KITSAT 1 21 Oct 20:44:37 20:45:13 10° 33° (NNE) 20:45:49 435.175 FM
ISS 21 Oct 21:05:17 21:07:55 21° 34° (NNE) 21:10:32 145.800 FM
STRAND 1 21 Oct 21:20:33 21:25:03 31° 290° (WNW) 21:29:31 ?
UKube-1 21 Oct 21:25:01 21:26:53 13° 66° (ENE) 21:28:46 145.840 MHz, 145.915 MHz
HO-68 21 Oct 21:51:20 21:58:29 86° 74° (ENE) 22:05:42 435.675 MHz FM
FUNcube-1 21 Oct 21:59:07 22:00:33 11° 66° (ENE) 22:01:59 145.950 - 145.970 MHz USB
Oscar 11 21 Oct 22:07:24 22:11:18 33° 72° (ENE) 22:15:11 145.825 FM, Beacon 2401.500 USB
RS-15 21 Oct 22:22:12 22:31:45 35° 106° (ESE) 22:41:07 29.354 - 29.394 USB, Beacon 29.352 USB
KITSAT 1 21 Oct 22:35:11 22:42:55 47° 56° (ENE) 22:50:35 435.175 FM
ISS 21 Oct 22:41:37 22:44:39 33° 229° (SW) 22:47:40 145.800 FM
ZACube-1 21 Oct 22:46:32 22:50:50 40° 73° (ENE) 22:55:06 437.345 MHz
UKube-1 21 Oct 22:58:25 23:02:37 48° 260° (W) 23:06:50 145.840 MHz, 145.915 MHz
FUNcube-1 21 Oct 23:31:49 23:36:22 61° 259° (W) 23:40:54 145.950 - 145.970 MHz USB
SO-50 21 Oct 23:40:00 23:44:49 61° 59° (ENE) 23:49:39 436.795 FM
HO-68 21 Oct 23:43:43 23:46:52 13° 269° (W) 23:50:02 435.675 MHz FM
Oscar 11 21 Oct 23:44:43 23:47:31 17° 266° (W) 23:50:19 145.825 FM, Beacon 2401.500 USB
MaSat-1 22 Oct 00:06:31 00:08:45 14° 105° (ESE) 00:10:54 437.345 MHz
ZACube-1 22 Oct 00:24:29 00:27:18 16° 266° (W) 00:30:08 437.345 MHz
KITSAT 1 22 Oct 00:30:59 00:38:01 34° 253° (WSW) 00:45:02 435.175 FM
RS-15 22 Oct 00:32:42 00:43:28 57° 304° (NW) 00:54:12 29.354 - 29.394 USB, Beacon 29.352 USB
UOSAT-12 22 Oct 01:21:52 01:26:30 57° 59° (ENE) 01:31:03 437.025 FM, 437.400 FM
SO-50 22 Oct 01:22:42 01:24:51 13° 253° (WSW) 01:26:59 436.795 FM
MaSat-1 22 Oct 01:40:09 01:44:14 40° 295° (WNW) 01:48:00 437.345 MHz
JAS-1B 22 Oct 01:51:58 01:55:36 14° 95° (E) 01:59:30 435.800 - 435.900 CW/SSB
Oscar 19 22 Oct 01:56:01 01:57:56 12° 92° (E) 01:59:52 437.125 CW, 437.150 USB
Oscar 16 22 Oct 02:38:48 02:43:32 37° 98° (E) 02:48:14 437.025 USB, Beacon 2401.1428
RS-15 22 Oct 02:52:42 02:58:56 16° 332° (NNW) 03:05:13 29.354 - 29.394 USB, Beacon 29.352 USB
Uribyol 2 22 Oct 02:53:21 02:57:10 20° 95° (E) 03:00:57 436.500 FM
ITAMSAT 1 22 Oct 02:58:26 03:02:23 22° 95° (E) 03:06:19 435.822 SSB
AO-Echo 22 Oct 02:59:43 03:04:24 31° 97° (E) 03:09:03 ?
Gurwin Techsat 1B 22 Oct 03:02:00 03:03:06 11° 91° (E) 03:04:11 435.225 FM
UOSAT-12 22 Oct 03:04:11 03:06:05 12° 253° (WSW) 03:07:59 437.025 FM, 437.400 FM
TMSAT-1 22 Oct 03:15:38 03:16:25 10° 91° (E) 03:17:13 436.925 FM
Oscar 19 22 Oct 03:32:35 03:37:38 62° 286° (WNW) 03:42:39 437.125 CW, 437.150 USB
JAS-1B 22 Oct 03:39:42 03:46:23 81° 285° (WNW) 03:54:25 435.800 - 435.900 CW/SSB
AO-27 22 Oct 03:42:13 03:47:25 63° 102° (ESE) 03:52:34 436.795 MHz FM
Sapphire 22 Oct 04:11:41 04:15:19 19° 105° (ESE) 04:18:59 437.095 MHz 1200 baud AX-25 AFSK
Oscar 16 22 Oct 04:18:46 04:22:36 22° 293° (WNW) 04:26:26 437.025 USB, Beacon 2401.1428
Uribyol 2 22 Oct 04:31:54 04:36:43 39° 289° (WNW) 04:41:31 436.500 FM
PCSat 22 Oct 04:33:14 04:38:01 34° 109° (ESE) 04:42:51 145.825 MHz
ITAMSAT 1 22 Oct 04:37:09 04:41:56 38° 289° (WNW) 04:46:41 435.822 SSB
Gurwin Techsat 1B 22 Oct 04:38:12 04:43:31 73° 285° (WNW) 04:48:47 435.225 FM
AO-Echo 22 Oct 04:38:32 04:42:59 28° 291° (WNW) 04:47:25 ?
Uosat F 22 Oct 04:45:36 04:45:55 10° 91° (E) 04:46:14 435.120 FM
TMSAT-1 22 Oct 04:51:30 04:56:48 75° 285° (WNW) 05:02:04 436.925 FM
OPAL 22 Oct 05:14:28 05:18:53 29° 68° (ENE) 05:23:16 ?
RS-15 22 Oct 05:15:41 05:18:30 11° 12° (NNE) 05:21:21 29.354 - 29.394 USB, Beacon 29.352 USB
AO-27 22 Oct 05:23:45 05:26:20 14° 296° (WNW) 05:28:55 436.795 MHz FM
AO-7 22 Oct 05:29:06 05:37:05 49° 102° (ESE) 05:45:03 29.400 - 29.500 MHz
JAS-1B 22 Oct 05:34:14 05:36:20 12° 298° (WNW) 05:38:31 435.800 - 435.900 CW/SSB
Sapphire 22 Oct 05:53:06 05:58:18 48° 300° (WNW) 06:03:33 437.095 MHz 1200 baud AX-25 AFSK
PCSat 22 Oct 06:16:47 06:21:24 28° 304° (NW) 06:26:03 145.825 MHz
Uosat F 22 Oct 06:20:05 06:25:07 71° 285° (WNW) 06:30:07 435.120 FM
Hamsat 22 Oct 06:20:06 06:21:42 12° 93° (E) 06:23:19 145.90 MHz
OPAL 22 Oct 06:53:15 06:57:39 28° 261° (W) 07:02:02 ?
STRAND 1 22 Oct 06:54:11 06:58:22 26° 68° (ENE) 07:02:33 ?
JAS-2 22 Oct 06:58:01 07:05:47 67° 101° (E) 07:13:30 435.800 - 435.900 CW/SSB, 435.910 FM
AO-7 22 Oct 07:22:22 07:29:31 34° 298° (WNW) 07:36:42 29.400 - 29.500 MHz
RS-15 22 Oct 07:26:24 07:36:07 33° 45° (NE) 07:46:06 29.354 - 29.394 USB, Beacon 29.352 USB
Hamsat 22 Oct 07:53:51 07:57:49 43° 286° (WNW) 08:01:48 145.90 MHz
SO-67 22 Oct 08:03:10 08:05:53 21° 96° (E) 08:08:35 435.3500 MHz FM
STRAND 1 22 Oct 08:32:53 08:37:22 31° 263° (W) 08:41:54 ?
JAS-2 22 Oct 08:44:15 08:50:06 24° 296° (WNW) 08:56:00 435.800 - 435.900 CW/SSB, 435.910 FM
Saudisat 1A 22 Oct 08:50:48 08:55:08 69° 117° (ESE) 08:59:31 436.775 MHz
HO-68 22 Oct 09:24:48 09:29:45 20° 94° (E) 09:34:40 435.675 MHz FM
SO-67 22 Oct 09:36:33 09:38:40 16° 289° (WNW) 09:40:46 435.3500 MHz FM
PANSAT 22 Oct 09:36:46 09:39:54 24° 167° (SSE) 09:43:03 not established
RS-15 22 Oct 09:38:10 09:49:20 71° 246° (WSW) 10:01:00 29.354 - 29.394 USB, Beacon 29.352 USB
AO-40 22 Oct 09:46:09 09:58:42 16° 215° (SW) 10:04:15 Beacon 2401.320
Saudisat 1A 22 Oct 10:33:25 10:35:09 12° 313° (NW) 10:36:53 436.775 MHz
UKube-1 22 Oct 10:50:21 10:54:23 36° 99° (E) 10:58:24 145.840 MHz, 145.915 MHz
HO-68 22 Oct 11:10:45 11:17:51 65° 289° (WNW) 11:24:56 435.675 MHz FM
PANSAT 22 Oct 11:16:10 11:19:41 35° 179° (S) 11:23:12 not established
FUNcube-1 22 Oct 11:25:13 11:29:03 32° 97° (E) 11:32:48 145.950 - 145.970 MHz USB
MaSat-1 22 Oct 11:30:39 11:32:59 32° 252° (WSW) 11:35:09 437.345 MHz
Oscar 11 22 Oct 11:34:15 11:38:32 69° 284° (WNW) 11:42:48 145.825 FM, Beacon 2401.500 USB
RS-15 22 Oct 11:56:20 11:59:47 12° 262° (W) 12:03:17 29.354 - 29.394 USB, Beacon 29.352 USB
ZACube-1 22 Oct 12:15:46 12:19:57 55° 285° (WNW) 12:24:02 437.345 MHz
UKube-1 22 Oct 12:27:30 12:30:15 17° 293° (WNW) 12:32:59 145.840 MHz, 145.915 MHz
PANSAT 22 Oct 12:56:15 12:59:28 25° 192° (SSW) 13:02:40 not established
KITSAT 1 22 Oct 12:58:51 13:06:36 53° 111° (ESE) 13:14:23 435.175 FM
FUNcube-1 22 Oct 13:02:27 13:05:08 17° 292° (WNW) 13:07:47 145.950 - 145.970 MHz USB
Oscar 19 22 Oct 13:09:34 13:11:58 13° 64° (ENE) 13:14:22 437.125 CW, 437.150 USB
PCSat 22 Oct 13:26:02 13:28:52 14° 49° (NE) 13:31:40 145.825 MHz
ISS 22 Oct 13:44:16 13:47:27 45° 133° (SE) 13:50:39 145.800 FM
Oscar 10/S400 22 Oct 13:44:19 14:05:39 42° 153° (SSE) 14:24:50 145.825 - 145.975 CW/USB, Beacon 145.810 USB
SO-50 22 Oct 13:51:30 13:55:44 46° 114° (ESE) 14:00:06 436.795 FM
Oscar 16 22 Oct 13:52:08 13:56:52 38° 71° (ENE) 14:01:35 437.025 USB, Beacon 2401.1428
Uribyol 2 22 Oct 14:07:47 14:11:43 22° 67° (ENE) 14:15:41 436.500 FM
AO-Echo 22 Oct 14:09:31 14:13:27 25° 69° (ENE) 14:17:29 ?
ITAMSAT 1 22 Oct 14:13:00 14:17:02 23° 67° (ENE) 14:21:05 435.822 SSB
Gurwin Techsat 1B 22 Oct 14:19:04 14:21:28 13° 63° (ENE) 14:23:52 435.225 FM
JAS-1B 22 Oct 14:22:27 14:28:35 60° 73° (ENE) 14:34:12 435.800 - 435.900 CW/SSB
TMSAT-1 22 Oct 14:32:13 14:34:28 13° 63° (ENE) 14:36:43 436.925 FM
PANSAT 22 Oct 14:38:34 14:39:03 10° 203° (SSW) 14:39:31 not established
Sapphire 22 Oct 14:44:36 14:49:59 61° 62° (ENE) 14:55:19 437.095 MHz 1200 baud AX-25 AFSK
Oscar 19 22 Oct 14:45:36 14:50:43 63° 259° (WSW) 14:55:50 437.125 CW, 437.150 USB
KITSAT 1 22 Oct 14:55:13 15:02:15 32° 309° (NW) 15:09:19 435.175 FM
AO-27 22 Oct 14:56:36 15:01:44 65° 74° (ENE) 15:06:54 436.795 MHz FM
PCSat 22 Oct 15:07:26 15:12:52 77° 246° (WSW) 15:18:15 145.825 MHz
ISS 22 Oct 15:21:59 15:24:18 17° 328° (NNW) 15:26:38 145.800 FM
UOSAT-12 22 Oct 15:29:26 15:33:44 41° 114° (ESE) 15:38:08 437.025 FM, 437.400 FM
Oscar 16 22 Oct 15:32:24 15:36:16 21° 265° (W) 15:40:08 437.025 USB, Beacon 2401.1428
SO-50 22 Oct 15:33:31 15:36:31 17° 311° (NW) 15:39:35 436.795 FM
Uribyol 2 22 Oct 15:46:06 15:50:54 38° 261° (W) 15:55:45 436.500 FM
AO-Echo 22 Oct 15:47:57 15:52:04 28° 264° (W) 15:56:19 ?
ITAMSAT 1 22 Oct 15:51:32 15:56:16 36° 262° (W) 16:01:03 435.822 SSB
Uosat F 22 Oct 15:55:25 15:56:25 11° 62° (ENE) 15:57:24 435.120 FM
